Time,TemperatureF,DewpointF,PressureIn,WindDirection,WindDirectionDegrees,WindSpeedMPH,WindSpeedGustMPH,Humidity,HourlyPrecipIn,Conditions,Clouds,dailyrainin,SoftwareType,DateUTC
2013-03-15 16:47:00,51.0,46.3,29.77,West,270,0.0,0.0,84,0.00,,,0.00,WUHU216HW,2013-03-15 23:47:00,
2013-03-15 16:52:00,51.0,46.3,29.78,West,270,0.0,0.0,84,0.00,,,0.00,WUHU216HW,2013-03-15 23:52:00,
2013-03-15 16:57:00,51.0,46.0,29.77,West,270,0.0,0.0,83,0.00,,,0.00,WUHU216HW,2013-03-15 23:57:00,
2013-03-15 17:02:00,51.0,46.0,29.77,West,270,0.0,0.0,83,0.00,,,0.00,WUHU216HW,2013-03-16 00:02:00,
2013-03-15 17:07:00,51.2,46.2,29.77,West,270,0.0,0.0,83,0.00,,,0.00,WUHU216HW,2013-03-16 00:07:00,
2013-03-15 17:12:00,51.0,45.7,29.77,West,270,0.0,0.0,82,0.00,,,0.00,WUHU216HW,2013-03-16 00:12:00,
2013-03-15 17:17:00,51.0,45.7,29.77,West,270,0.0,0.0,82,0.00,,,0.00,WUHU216HW,2013-03-16 00:17:00,
2013-03-15 17:22:00,50.9,45.5,29.77,West,270,0.0,0.0,82,0.00,,,0.00,WUHU216HW,2013-03-16 00:22:00,
2013-03-15 17:27:00,50.9,45.8,29.77,West,270,0.0,0.0,83,0.00,,,0.00,WUHU216HW,2013-03-16 00:27:00,
2013-03-15 17:32:00,50.7,46.0,29.77,West,270,0.0,0.0,84,0.00,,,0.00,WUHU216HW,2013-03-16 00:32:00,
2013-03-15 17:37:00,50.7,46.0,29.77,West,270,0.0,0.0,84,0.00,,,0.00,WUHU216HW,2013-03-16 00:37:00,
2013-03-15 17:42:00,50.7,46.3,29.77,West,270,0.0,0.0,85,0.00,,,0.00,WUHU216HW,2013-03-16 00:42:00,
2013-03-15 17:47:00,50.5,46.1,29.77,West,270,0.0,0.0,85,0.02,,,0.02,WUHU216HW,2013-03-16 00:47:00,
2013-03-15 17:52:00,50.1,46.0,29.76,West,270,0.0,0.0,86,0.02,,,0.02,WUHU216HW,2013-03-16 00:52:00,
2013-03-15 17:57:00,50.1,46.0,29.76,West,270,0.0,0.0,86,0.02,,,0.02,WUHU216HW,2013-03-16 00:57:00,
2013-03-15 18:02:00,49.6,45.8,29.77,West,270,0.0,0.0,87,0.02,,,0.02,WUHU216HW,2013-03-16 01:02:00,
2013-03-15 18:08:00,49.6,45.8,29.77,West,270,0.0,0.0,87,0.02,,,0.02,WUHU216HW,2013-03-16 01:08:00,
2013-03-15 18:13:00,49.1,45.3,29.76,West,270,0.0,0.0,87,0.02,,,0.02,WUHU216HW,2013-03-16 01:13:00,
2013-03-15 18:18:00,48.9,45.5,29.76,West,270,0.0,0.0,88,0.02,,,0.02,WUHU216HW,2013-03-16 01:18:00,
2013-03-15 18:23:00,48.7,45.3,29.76,West,270,0.0,0.0,88,0.02,,,0.02,WUHU216HW,2013-03-16 01:23:00,
2013-03-15 18:28:00,48.7,45.6,29.76,WSW,248,0.0,0.0,89,0.02,,,0.02,WUHU216HW,2013-03-16 01:28:00,
2013-03-15 18:33:00,48.3,45.3,29.76,WSW,248,0.0,0.0,89,0.02,,,0.02,WUHU216HW,2013-03-16 01:33:00,
2013-03-15 18:38:00,48.3,45.3,29.76,WSW,248,0.0,0.0,89,0.02,,,0.02,WUHU216HW,2013-03-16 01:38:00,
2013-03-15 18:43:00,48.0,44.9,29.76,WSW,248,0.0,0.0,89,0.02,,,0.02,WUHU216HW,2013-03-16 01:43:00,
2013-03-15 18:48:00,48.0,44.9,29.76,West,270,0.0,0.0,89,0.00,,,0.02,WUHU216HW,2013-03-16 01:48:00,
2013-03-15 18:53:00,47.8,44.8,29.76,West,270,0.0,0.0,89,0.00,,,0.02,WUHU216HW,2013-03-16 01:53:00,
2013-03-15 18:58:00,47.6,44.6,29.76,West,270,0.0,0.0,89,0.00,,,0.02,WUHU216HW,2013-03-16 01:58:00,
2013-03-15 19:03:00,47.4,44.7,29.76,West,270,0.0,0.0,90,0.00,,,0.02,WUHU216HW,2013-03-16 02:03:00,
2013-03-15 19:08:00,47.4,44.7,29.77,West,270,0.0,0.0,90,0.00,,,0.02,WUHU216HW,2013-03-16 02:08:00,
2013-03-15 19:13:00,47.1,44.4,29.76,West,270,0.0,0.0,90,0.00,,,0.02,WUHU216HW,2013-03-16 02:13:00,
2013-03-15 19:18:00,47.1,44.4,29.76,West,270,0.0,0.0,90,0.00,,,0.02,WUHU216HW,2013-03-16 02:18:00,
2013-03-15 19:23:00,47.1,44.4,29.76,West,270,0.0,0.0,90,0.00,,,0.02,WUHU216HW,2013-03-16 02:23:00,
2013-03-15 19:28:00,46.9,44.1,29.77,West,270,0.0,0.0,90,0.00,,,0.02,WUHU216HW,2013-03-16 02:28:00,
2013-03-15 19:33:00,46.7,44.3,29.77,West,270,0.0,0.0,91,0.00,,,0.02,WUHU216HW,2013-03-16 02:33:00,
2013-03-15 19:38:00,46.2,43.7,29.77,SSW,203,0.0,0.0,91,0.03,,,0.05,WUHU216HW,2013-03-16 02:38:00,
2013-03-15 19:43:00,46.0,43.6,29.76,SSW,203,0.0,0.0,91,0.03,,,0.05,WUHU216HW,2013-03-16 02:43:00,
2013-03-15 19:48:00,45.8,43.1,29.76,SSW,203,0.0,0.0,90,0.05,,,0.07,WUHU216HW,2013-03-16 02:48:00,
2013-03-15 19:53:00,45.6,43.2,29.76,North,0,0.0,1.3,91,0.05,,,0.07,WUHU216HW,2013-03-16 02:53:00,
2013-03-15 19:58:00,45.6,43.2,29.77,North,0,0.0,1.3,91,0.05,,,0.07,WUHU216HW,2013-03-16 02:58:00,
2013-03-15 20:03:00,45.5,43.0,29.77,West,270,0.0,0.0,91,0.05,,,0.07,WUHU216HW,2013-03-16 03:03:00,
2013-03-15 20:08:00,45.5,43.0,29.77,West,270,0.0,0.0,91,0.05,,,0.07,WUHU216HW,2013-03-16 03:08:00,
2013-03-15 20:13:00,45.3,42.8,29.77,West,270,0.0,0.0,91,0.05,,,0.07,WUHU216HW,2013-03-16 03:13:00,
2013-03-15 20:18:00,45.1,42.7,29.77,West,270,0.0,0.0,91,0.05,,,0.07,WUHU216HW,2013-03-16 03:18:00,
2013-03-15 20:23:00,44.9,42.8,29.76,West,270,0.0,0.0,92,0.07,,,0.09,WUHU216HW,2013-03-16 03:23:00,
2013-03-15 20:28:00,44.9,42.8,29.76,West,270,0.0,0.0,92,0.07,,,0.09,WUHU216HW,2013-03-16 03:28:00,
2013-03-15 20:33:00,44.9,42.8,29.76,West,270,0.0,0.0,92,0.07,,,0.09,WUHU216HW,2013-03-16 03:33:00,
2013-03-15 20:38:00,44.9,42.8,29.76,West,270,0.0,0.0,92,0.04,,,0.09,WUHU216HW,2013-03-16 03:38:00,
2013-03-15 20:43:00,44.9,42.8,29.76,West,270,0.0,0.0,92,0.04,,,0.09,WUHU216HW,2013-03-16 03:43:00,
2013-03-15 20:48:00,44.9,42.8,29.76,West,270,0.0,0.0,92,0.02,,,0.09,WUHU216HW,2013-03-16 03:48:00,
2013-03-15 20:53:00,44.7,42.6,29.76,West,270,0.0,0.0,92,0.02,,,0.09,WUHU216HW,2013-03-16 03:53:00,
2013-03-15 20:58:00,44.6,42.4,29.76,West,270,0.0,0.0,92,0.02,,,0.09,WUHU216HW,2013-03-16 03:58:00,
2013-03-15 21:04:00,44.4,42.2,29.76,West,270,0.0,0.0,92,0.02,,,0.09,WUHU216HW,2013-03-16 04:04:00,
2013-03-15 21:09:00,44.4,42.2,29.77,West,270,0.0,0.0,92,0.02,,,0.09,WUHU216HW,2013-03-16 04:09:00,
2013-03-15 21:14:00,44.4,42.2,29.77,West,270,0.0,0.0,92,0.02,,,0.09,WUHU216HW,2013-03-16 04:14:00,
2013-03-15 21:19:00,44.4,42.2,29.77,West,270,0.0,0.0,92,0.00,,,0.09,WUHU216HW,2013-03-16 04:19:00,
2013-03-15 21:24:00,44.4,42.2,29.77,West,270,0.0,0.0,92,0.00,,,0.09,WUHU216HW,2013-03-16 04:24:00,
2013-03-15 21:29:00,44.2,42.0,29.77,West,270,0.0,0.0,92,0.00,,,0.09,WUHU216HW,2013-03-16 04:29:00,
2013-03-15 21:34:00,44.0,41.9,29.77,West,270,0.0,0.0,92,0.00,,,0.09,WUHU216HW,2013-03-16 04:34:00,
2013-03-15 21:39:00,43.8,41.7,29.77,WSW,248,0.0,0.0,92,0.00,,,0.09,WUHU216HW,2013-03-16 04:39:00,
2013-03-15 21:44:00,43.8,41.7,29.77,WSW,248,0.0,0.0,92,0.00,,,0.09,WUHU216HW,2013-03-16 04:44:00,
2013-03-15 21:49:00,43.7,41.5,29.76,WSW,248,0.0,0.0,92,0.00,,,0.09,WUHU216HW,2013-03-16 04:49:00,
2013-03-15 21:54:00,43.7,41.8,29.77,WSW,248,0.0,0.0,93,0.00,,,0.09,WUHU216HW,2013-03-16 04:54:00,
2013-03-15 21:59:00,43.5,41.6,29.76,WSW,248,0.0,0.0,93,0.00,,,0.09,WUHU216HW,2013-03-16 04:59:00,
2013-03-15 22:04:00,43.5,41.6,29.76,WSW,248,0.0,0.0,93,0.00,,,0.09,WUHU216HW,2013-03-16 05:04:00,
2013-03-15 22:09:00,43.5,41.6,29.76,WSW,248,0.0,0.0,93,0.00,,,0.09,WUHU216HW,2013-03-16 05:09:00,
2013-03-15 22:14:00,43.3,41.4,29.77,WSW,248,0.0,0.0,92,0.00,,,0.09,WUHU216HW,2013-03-16 05:14:00,
2013-03-15 22:19:00,43.3,41.4,29.76,WSW,248,0.0,0.0,93,0.00,,,0.09,WUHU216HW,2013-03-16 05:19:00,
2013-03-15 22:24:00,43.3,41.4,29.76,WSW,248,0.0,0.0,93,0.00,,,0.09,WUHU216HW,2013-03-16 05:24:00,
2013-03-15 22:29:00,43.1,41.2,29.76,WSW,248,0.0,0.0,93,0.00,,,0.09,WUHU216HW,2013-03-16 05:29:00,
2013-03-15 22:34:00,43.1,41.2,29.76,WSW,248,0.0,0.0,93,0.00,,,0.09,WUHU216HW,2013-03-16 05:34:00,
2013-03-15 22:39:00,42.9,41.0,29.76,WSW,248,0.0,0.0,93,0.00,,,0.09,WUHU216HW,2013-03-16 05:39:00,
2013-03-15 22:44:00,42.9,41.0,29.76,WSW,248,0.0,0.0,93,0.00,,,0.09,WUHU216HW,2013-03-16 05:44:00,
2013-03-15 22:49:00,42.8,40.9,29.76,WSW,248,0.0,0.0,93,0.00,,,0.09,WUHU216HW,2013-03-16 05:49:00,
2013-03-15 22:54:00,42.9,41.0,29.75,WSW,248,0.0,0.0,93,0.00,,,0.09,WUHU216HW,2013-03-16 05:54:00,
2013-03-15 22:59:00,42.6,40.7,29.75,WSW,248,0.0,0.0,93,0.00,,,0.09,WUHU216HW,2013-03-16 05:59:00,
2013-03-15 23:04:00,42.6,40.7,29.75,WSW,248,0.0,0.0,93,0.00,,,0.09,WUHU216HW,2013-03-16 06:04:00,
2013-03-15 23:09:00,42.6,40.7,29.75,WSW,248,0.0,0.0,93,0.00,,,0.09,WUHU216HW,2013-03-16 06:09:00,
2013-03-15 23:14:00,42.6,40.7,29.75,WSW,248,0.0,0.0,93,0.00,,,0.09,WUHU216HW,2013-03-16 06:14:00,
2013-03-15 23:19:00,42.6,40.7,29.75,WSW,248,0.0,0.0,93,0.00,,,0.09,WUHU216HW,2013-03-16 06:19:00,
2013-03-15 23:24:00,42.6,40.7,29.75,WSW,248,0.0,0.0,93,0.00,,,0.09,WUHU216HW,2013-03-16 06:24:00,
2013-03-15 23:29:00,42.4,40.5,29.75,WSW,248,0.0,0.0,93,0.00,,,0.09,WUHU216HW,2013-03-16 06:29:00,
2013-03-15 23:34:00,42.4,40.5,29.75,WSW,248,0.0,0.0,93,0.00,,,0.09,WUHU216HW,2013-03-16 06:34:00,
2013-03-15 23:39:00,42.4,40.5,29.74,WSW,248,0.0,0.0,93,0.00,,,0.09,WUHU216HW,2013-03-16 06:39:00,
2013-03-15 23:44:00,42.2,40.3,29.74,WSW,248,0.0,0.0,93,0.00,,,0.09,WUHU216HW,2013-03-16 06:44:00,
2013-03-15 23:49:00,42.0,40.1,29.75,WSW,248,0.0,0.0,93,0.00,,,0.09,WUHU216HW,2013-03-16 06:49:00,
2013-03-15 23:54:00,42.2,40.3,29.75,WSW,248,0.0,0.0,93,0.02,,,0.11,WUHU216HW,2013-03-16 06:54:00,
2013-03-15 23:59:00,42.0,40.1,29.75,WSW,248,0.0,0.0,93,0.02,,,0.11,WUHU216HW,2013-03-16 06:59:00,